"Pseudo-MPEC" for C0JC315

Created 2023 Sep 24 8:22:04 UT using Find_Orb

Click here for an explanation of pseudo-MPECs

 
 Astrometry: 
     C0JC315* C2023 09 19.32346323 10 44.846+02 53 49.31   ~9J8b 22.08GVNEOCPV00
     C0JC315  C2023 09 19.32896123 10 46.265+02 54 08.68   ~9J8b 21.66GVNEOCPV00
     C0JC315  C2023 09 19.33446023 10 47.798+02 54 27.94   ~9J8b 21.85GVNEOCPV00

Station data:
(V00) Kitt Peak-Bok  (N31.963125 W111.600190)  US/Arizona.  Observers T. A.
   Pruyne, B. M. Africano, E. J. Christensen, G. A. Farneth, D. C. Fuls, A.
   R. Gibbs, A. D. Grauer, H. Gröller, J. A. Johnson, R. A. Kowalski, S. M.
   Larson, G. J. Leonard, D. Rankin, R. L. Seaman, F. C. Shelly, K. W.
   Wierzchoś. 2.25-m reflector + 4x4K mosaic CCD.

Orbital elements:  C0JC315
   Perihelion 2023 Oct 14.74746 +/- 38.5 TT = 17:56:20 (JD 2460232.24746)
Epoch 2023 Sep 19.0 TT = JDT 2460206.5   Earth MOID: 0.0474   Ma: 0.0375
M 349.46253978 +/- 19               (J2000 ecliptic)             AutoNEOCP
n   0.40926216 +/- 0.303            Peri.   67.33140 +/- 100
a   1.79667000 +/- 0.886            Node   315.46776 +/- 60
e   0.4195392 +/- 0.251             Incl.    0.81390 +/- 2.2
P   2.41/879.62d           H 27.00  G  0.15   U 11.9  SR
q 1.04289649 +/- 0.191    Q 2.55044351 +/- 44.7
From 3 observations 2023 Sept. 19 (15.8 min); mean residual 0".28
Residuals in arcseconds: 
230919 V00  .28+  .02-    230919 V00  .55-  .04+    230919 V00  .28+  .02-    

Ephemerides (geocentric):
Date (UTC) HH   RA             Dec           delta  r     elong  mag " sig PA
---- --------  ------------   ------------  ------ ------ -----  --- --------
2023 09 24 08  23 41 52.788   +08 36 41.95  .06378 1.0662 170.2 21.8  52d  91
2023 09 24 09  23 42 11.302   +08 39 57.25  .06370 1.0661 170.2 21.8  52d  91
2023 09 24 10  23 42 29.869   +08 43 12.95  .06362 1.0660 170.2 21.8  52d  91
2023 09 24 11  23 42 48.491   +08 46 29.04  .06354 1.0659 170.2 21.8  53d  91
2023 09 24 12  23 43 07.168   +08 49 45.54  .06346 1.0658 170.2 21.8  53d  91
2023 09 24 13  23 43 25.899   +08 53 02.44  .06338 1.0657 170.1 21.8  53d  91
2023 09 24 14  23 43 44.685   +08 56 19.74  .06330 1.0656 170.1 21.8  53d  91
2023 09 24 15  23 44 03.525   +08 59 37.43  .06322 1.0656 170.1 21.8  53d  90
2023 09 24 16  23 44 22.420   +09 02 55.52  .06314 1.0655 170.1 21.8  53d  90
2023 09 24 17  23 44 41.370   +09 06 14.01  .06306 1.0654 170.1 21.8  53d  90
2023 09 24 18  23 45 00.376   +09 09 32.90  .06298 1.0653 170.1 21.8  53d  90
2023 09 24 19  23 45 19.436   +09 12 52.18  .06291 1.0652 170.1 21.8  53d  90
2023 09 24 20  23 45 38.552   +09 16 11.85  .06283 1.0651 170.0 21.8  54d  90
2023 09 24 21  23 45 57.723   +09 19 31.92  .06275 1.0650 170.0 21.8  54d  90
2023 09 24 22  23 46 16.950   +09 22 52.38  .06267 1.0649 170.0 21.7  54d  90
2023 09 24 23  23 46 36.232   +09 26 13.23  .06260 1.0648 170.0 21.7  54d  90
2023 09 25 00  23 46 55.570   +09 29 34.47  .06252 1.0647 170.0 21.7  54d  90
2023 09 25 01  23 47 14.963   +09 32 56.10  .06244 1.0646 170.0 21.7  54d  90
2023 09 25 02  23 47 34.413   +09 36 18.13  .06237 1.0646 170.0 21.7  54d  90
2023 09 25 03  23 47 53.919   +09 39 40.54  .06229 1.0645 169.9 21.7  54d  90
2023 09 25 04  23 48 13.480   +09 43 03.33  .06221 1.0644 169.9 21.7  54d  90
2023 09 25 05  23 48 33.098   +09 46 26.52  .06214 1.0643 169.9 21.7  54d  90
2023 09 25 06  23 48 52.773   +09 49 50.09  .06206 1.0642 169.9 21.7  54d  90
2023 09 25 07  23 49 12.503   +09 53 14.04  .06199 1.0641 169.9 21.7  54d  90
2023 09 25 08  23 49 32.290   +09 56 38.38  .06191 1.0640 169.8 21.7  54d  90
2023 09 25 09  23 49 52.134   +10 00 03.10  .06184 1.0639 169.8 21.7  54d  90
2023 09 25 10  23 50 12.035   +10 03 28.20  .06176 1.0638 169.8 21.7  54d  90
2023 09 25 11  23 50 31.992   +10 06 53.68  .06169 1.0637 169.8 21.7  54d  90
2023 09 25 12  23 50 52.006   +10 10 19.54  .06162 1.0637 169.8 21.7  54d  90
2023 09 25 13  23 51 12.077   +10 13 45.77  .06154 1.0636 169.7 21.7  54d  90
2023 09 25 14  23 51 32.205   +10 17 12.39  .06147 1.0635 169.7 21.7  54d  90
2023 09 25 15  23 51 52.391   +10 20 39.38  .06140 1.0634 169.7 21.7  55d  90
2023 09 25 16  23 52 12.633   +10 24 06.74  .06132 1.0633 169.7 21.7  55d  90
2023 09 25 17  23 52 32.934   +10 27 34.48  .06125 1.0632 169.7 21.7  55d  90
2023 09 25 18  23 52 53.291   +10 31 02.58  .06118 1.0631 169.6 21.7  55d  90
2023 09 25 19  23 53 13.706   +10 34 31.06  .06111 1.0630 169.6 21.7  55d  90
2023 09 25 20  23 53 34.179   +10 37 59.91  .06103 1.0630 169.6 21.7  55d  90
2023 09 25 21  23 53 54.709   +10 41 29.12  .06096 1.0629 169.6 21.7  55d  90
2023 09 25 22  23 54 15.297   +10 44 58.71  .06089 1.0628 169.5 21.7  55d  90
2023 09 25 23  23 54 35.944   +10 48 28.65  .06082 1.0627 169.5 21.7  55d  90
2023 09 26 00  23 54 56.648   +10 51 58.96  .06075 1.0626 169.5 21.7  55d  90
2023 09 26 01  23 55 17.410   +10 55 29.63  .06068 1.0625 169.5 21.7  55d  90
2023 09 26 02  23 55 38.230   +10 59 00.67  .06061 1.0624 169.5 21.7  55d  90
2023 09 26 03  23 55 59.109   +11 02 32.06  .06054 1.0624 169.4 21.7  55d  90
2023 09 26 04  23 56 20.046   +11 06 03.81  .06047 1.0623 169.4 21.7  55d  90
2023 09 26 05  23 56 41.041   +11 09 35.92  .06040 1.0622 169.4 21.7  55d  90
2023 09 26 06  23 57 02.095   +11 13 08.38  .06033 1.0621 169.3 21.7  55d  90
2023 09 26 07  23 57 23.207   +11 16 41.19  .06026 1.0620 169.3 21.7  55d  90